Lid_Strength_Index
1 1 1 -0 -0 -0 -0 0 0 0 0 1 1 1 0 0 -0 -0 -0 1 -0 -2 -2 -2 -2 -1 -2 -2 -2 -1 -2 -2 -1 -1 -2 -1 -1 -1 -1 -2 -2 -2 -2
1 2 2 1 1 0 1 0 0 -0 0 0 1 0 0 -0 0 0 0 0 0 -1 -2 -1 -1 -1 -1 -1 -1 -1 -1 -1 -2 -1 -1 -1 -1 -1 -1 -1 -1 -1 -1
1 1 2 2 1 2 1 1 1 1 2 1 1 1 1 0 0 0 -0 -0 0 1 -0 -1 -1 -1 -1 -1 -1 -1 -1 -2 -2 -2 -2 -2 -2 -2 -1 -1 -1 -1 -1
1 1 1 1 1 2 1 1 1 2 2 2 2 2 1 1 1 1 1 1 0 1 1 -1 -1 -2 -2 -2 -2 -2 -2 -2 -2 -2 -2 -2 -2 -2 -2 -2 -2 -2 -2
1 1 2 2 1 2 2 1 1 2 2 2 2 2 2 1 1 0 1 1 1 2 3 2 2 1 -0 -2 -2 -2 -2 -1 -1 -1 -1 -1 -1 -1 -1 -2 -2 -2 -2
2 2 2 1 1 1 2 2 2 2 2 2 2 2 3 1 0 0 0 0 1 2 2 3 4 4 2 1 -0 -1 -0 0 -0 0 0 0 0 -0 -0 -0 -0 -1 -0
4 2 2 1 0 2 2 1 2 2 3 3 4 4 3 2 1 1 2 3 2 2 4 3 5 6 6 4 2 1 0 0 1 1 1 1 1 1 1 1 1 1 1
3 2 2 2 1 1 2 2 2 2 3 3 4 5 6 5 2 3 3 3 5 5 6 7 7 8 7 7 6 4 3 2 2 1 1 2 2 1 1 2 2 2 2
3 2 2 2 2 1 2 2 2 2 3 4 3 5 7 7 4 3 4 5 6 7 7 8 8 9 9 8 8 7 5 4 3 2 3 3 3 3 3 3 3 3 3
4 3 3 2 2 2 2 3 2 3 4 4 4 2 3 4 6 6 4 6 7 8 8 9 8 9 9 9 8 7 6 6 5 4 4 5 5 4 4 4 4 3 3
5 5 4 4 4 4 4 4 3 4 4 4 5 4 4 3 3 5 6 8 9 9 9 9 11 11 11 11 10 9 7 7 7 6 7 7 6 5 5 4 4 4 3
7 6 6 5 5 4 4 4 4 4 5 4 4 5 5 6 5 4 5 5 8 11 11 11 11 12 12 12 11 9 9 8 8 7 8 7 7 6 5 4 4 4 4
7 7 7 7 6 6 5 5 6 5 6 6 5 5 6 5 5 6 6 7 8 11 12 12 12 12 12 12 13 12 10 9 7 7 8 8 7 6 6 5 5 5 5
7 8 8 8 7 7 7 7 7 7 8 8 7 7 8 8 7 6 6 7 9 9 12 13 12 13 14 14 13 12 12 8 6 8 8 8 7 7 7 6 6 6 6
7 8 8 8 8 8 8 8 8 9 9 9 9 9 10 10 10 9 9 7 8 9 9 11 13 13 14 14 12 13 13 10 7 8 9 8 8 7 8 7 7 7 6
7 8 8 9 9 9 9 9 10 10 10 10 10 10 11 11 11 11 10 10 9 9 11 12 12 13 12 12 11 14 13 11 9 9 10 9 9 8 8 8 8 7 6
8 9 9 9 9 10 10 10 10 10 10 10 10 11 11 11 12 12 12 12 12 11 12 14 13 13 13 13 13 13 13 13 12 10 10 10 10 9 9 9 9 7 6
8 9 9 9 10 10 10 11 10 10 10 11 11 11 12 11 12 12 13 13 13 13 12 13 13 14 13 13 14 14 13 13 13 10 11 11 10 10 10 10 10 8 8
9 9 9 9 9 9 10 10 10 10 10 10 11 11 11 12 12 13 13 13 13 13 12 12 13 13 13 14 14 14 14 14 13 11 11 12 11 10 10 10 11 9 9
9 9 9 9 9 9 10 10 10 10 10 10 10 10 11 12 12 12 13 13 13 13 12 12 13 13 13 14 14 15 15 15 15 13 13 13 12 11 11 11 11 11 9
8 8 9 10 9 10 10 11 11 11 10 11 11 11 11 12 11 11 12 13 13 12 13 13 13 14 15 15 15 15 15 16 16 15 16 16 15 14 14 13 13 12 10
10 10 10 10 10 9 8 8 9 10 11 11 12 12 12 12 11 10 10 10 11 12 13 13 13 14 15 15 16 16 16 17 18 17 17 17 16 16 15 15 13 12 10
9 10 10 10 10 10 8 8 8 11 11 12 12 13 13 13 12 12 10 10 11 10 10 12 13 14 15 15 15 16 16 17 17 17 18 19 16 16 15 15 14 12 11
10 10 9 10 10 10 8 8 8 10 11 12 12 13 13 14 13 13 13 14 14 14 14 14 14 15 15 15 15 15 16 17 18 18 18 21 18 18 17 16 14 12 12
11 10 10 10 10 10 9 9 9 11 12 12 12 13 13 14 13 12 14 15 16 16 14 13 13 13 13 13 15 17 20 22 23 20 19 20 19 19 19 18 15 13 14
11 10 10 10 10 10 8 8 8 11 13 13 13 13 13 13 12 12 15 15 17 17 16 16 15 14 14 15 15 17 18 21 23 25 20 21 20 21 22 19 17 17 17